Regional & State Weather Roundups


224 
ASUS44 KMOB 172312
RWRMOB
REGIONAL WEATHER ROUNDUP
NATIONAL WEATHER SERVICE MOBILE AL
500 PM CST SAT FEB 17 2018
NOTE: "FAIR" INDICATES FEW OR NO CLOUDS BELOW 12,000 FEET WITH NO
      SIGNIFICANT WEATHER AND/OR OBSTRUCTIONS TO VISIBILITY.
  * THESE STATIONS ARE PART OF THE UNIVERSITY OF SOUTH ALABAMA 
    MESONET AND ARE NOT UNDER NWS OR FAA QUALITY CONTROL. 
ALZ061>064-180000-
COASTAL ALABAMA
  
CITY           SKY/WX    TMP DP  RH WIND       PRES   REMARKS
MOBILE REG APT FAIR      76  63  64 SW10      30.13R                  
BROOKLEY FIELD FAIR      77  66  68 SW7       30.14R                  
USA CAMPUS*    NOT AVBL                                               
DOG RIVER*     NOT AVBL                                               
  
CITY           SKY/WX    TMP DP  RH WIND       PRES   REMARKS
GULF SHORES    FAIR      69  68  95 S7        30.14R                  
$$
ALZ051>060-180000-
INTERIOR SOUTHWEST AND SOUTH CENTRAL ALABAMA
  
CITY           SKY/WX    TMP DP  RH WIND       PRES   REMARKS
GREENVILLE     FAIR      78  54  43 SW8       30.10S                  
EVERGREEN      FAIR      78  59  51 W3        30.11S                  
ATMORE*          N/A     75  63  64 SW9       30.87S                  
ANDALUSIA/OPP  FAIR      80  57  45 W6        30.11S                  
ANDALUSIA*       N/A     77  59  53 SW6       30.13S                  
FLORALA APT    NOT AVBL                                               
FLORALA*       NOT AVBL                                               
$$
FLZ001>006-180000-
WESTERN FLORIDA PANHANDLE
  
CITY           SKY/WX    TMP DP  RH WIND       PRES   REMARKS
PENSACOLA      FAIR      72  66  81 S9        30.13S                  
NAS PENSACOLA  MOCLDY    70  66  87 S7        30.14R                  
MILTON         FAIR      76  60  57 SW10      30.13S                  
WHTNG S FIELD  FAIR      76  62  62 SW3       30.13S                  
  
CITY           SKY/WX    TMP DP  RH WIND       PRES   REMARKS
JAY*           NOT AVBL                                               
DUKE FIELD     MOCLDY    74  65  74 SW10      30.13S                  
CRESTVIEW      FAIR      77  62  59 SW10      30.14S                  
VALPARAISO     MOCLDY    72  68  87 SW8       30.14S                  
DESTIN         MOCLDY    74  68  81 VRB6      30.14F                  
$$
MSZ076-079-180000-
INTERIOR SOUTHEAST MISSISSIPPI
  
CITY           SKY/WX    TMP DP  RH WIND       PRES   REMARKS
LEAKESVILLE*   NOT AVBL                                               
AGRICOLA*        N/A     75  64  69 CALM      30.11R                  
$$
MARINE OBSERVATIONS
  
STATION/POSITION TIME  TEMP    WIND        PRES    WAVE
                       AIR SEA DIR/SP/G            HT/PER
                 (UTC) (F)     (DEG/KT/KT) (MB)    (FT/S)
PETIT BOIS ISLND 2242   68     160/  7/  8 1021.1R
GRAND BAY        2145   69                   N/A
KATRINA CUT      2230          160/  5     1020.3S
CEDAR POINT      2230   68     180/  5     1020.7S
E DAUPHIN ISLAND 2300   66     140/  6/  6 1020.5R
MIDDLE BAY LIGHT 2230   66     170/ 12     1020.3F
USCG MOBILE BAY  2242   76 62  210/  7/ 10 1020.1R
STATE DOCKS      2242   78 58              1019.9R
MEAHER PARK      2230   66     160/ 11     1019.6F
WEEKS BAY        2145   76                 1020.0S
FORT MORGAN      2242   67     160/  7/  7   N/A
12 S ORANGE BCH  NOT AVBL
PENSACOLA BAY    2242   71 69  170/  2/  5 1020.8S
64 S DAUPHIN ISL 2250   74 74  290/  4/  4 1021.0F   2/ 5
67 S FORT MORGAN 2230   74                 1021.0S
$$
SELECTED LOCATIONS ACROSS THE REGION
  
CITY           SKY/WX    TMP DP  RH WIND       PRES   REMARKS
NEW ORLEANS    MOCLDY    80  61  52 SW7       30.12R                  
GULFPORT       FAIR      74  68  81 S6        30.12R                  
PASCAGOULA AP  FAIR      74  65  73 SW5       30.13S                  
PASCAGOULA*      N/A     61  59  94 CALM        N/A                   
HATTIESBURG    FAIR      78  61  55 S7        30.08F                  
LAUREL         FAIR      79  60  52 VRB7      30.09F                  
MERIDIAN       CLOUDY    77  60  55 W5        30.07R                  
JACKSON        LGT RAIN  60  59  96 N20       30.11R                  
MONTGOMERY     FAIR      76  58  53 SW13      30.09F                  
TROY           FAIR      76  57  51 SW9       30.12S                  
ASHFORD*         N/A     77  59  53 SW6       30.13S                  
DOTHAN         FAIR      77  60  55 SW6       30.16S                  
PANAMA CITY    MOCLDY    73  66  78 SW9       30.14F                  
$$